User: anonymous   Login
Location: Unspecified
(0.0000°N, 0.0000°E)
Time: 14:50:31
(UTC+00:00)
Language:

Diapason D-1A - Orbit

View from above orbital plane
View from above orbital plane
View from above satellite
View from above satellite

Ground track
Ground track

The orbit data is extracted from the following two-line orbital elements,

1  2016U 66013A   17206.24862327 +.00000166 +00000-0 +51339-4 0  9993
2  2016 034.0910 328.3488 1186796 142.9855 225.8887 12.59508617330129
Epoch (UTC): 25 July 2017 05:58:01
Eccentricity: 0.1186796
inclination: 34.0910°
perigee height: 499 km
apogee height: 2351 km
right ascension of ascending node: 328.3488°
argument of perigee: 142.9855°
revolutions per day: 12.59508617
mean anomaly at epoch: 225.8887°
orbit number at epoch: 33012

The dashed part of the orbit path shows where the satellite is in the earth's shadow,  

DLR